Дата Пункты Температура Давл., мм. Влажн., % Ветер Погодные явления
Воздуха Воды Направл. Скорость
16.11.14 01:00 Одесса 4.0 8.0 763 96 С 3 02 часа
15.11.14 10:00 Одесса 5.0 8.0 763 94 С-В 5 23 часа
15.11.14 07:00 Одесса 5.0 8.0 763 93 С 2 20 часов
15.11.14 04:00 Одесса 6.0 8.0 762 90 С 1 17 часов
15.11.14 01:00 Одесса 7.0 8.0 763 91 С 4 14 часов
15.11.14 10:00 Одесса 5.0 8.0 763 99 С-В 3 11 часов
15.11.14 07:00 Одесса 4.0 8.0 763 100 С-В 4 08 часов
15.11.14 04:00 Одесса 4.0 9.0 762 96 С 5 05 часов
15.11.14 01:00 Одесса 4.0 9.0 762 93 С 5 02 часа
14.11.14 10:00 Одесса 6.0 9.0 762 87 С 6 23 часа
14.11.14 07:00 Одесса 5.0 9.0 762 93 С 3 20 часов
14.11.14 04:00 Одесса 7.0 9.0 762 92 С 6 17 часов
14.11.14 01:00 Одесса 7.0 9.0 762 98 С 1 14 часов
14.11.14 10:00 Одесса 6.0 9.0 762 98 С-В 6 11 часов
14.11.14 07:00 Одесса 6.0 9.0 762 95 С-В 7 08 часов
14.11.14 04:00 Одесса 6.0 9.0 762 99 С-В 5 05 часов
14.11.14 01:00 Одесса 6.0 9.0 762 97 С-В 3 02 часа
13.11.14 10:00 Одесса 7.0 9.0 761 94 В 4 23 часа
13.11.14 07:00 Одесса 8.0 9.0 761 90 В 3 20 часов
13.11.14 04:00 Одесса 8.0 9.0 761 90 С-В 4 17 часов
Количество строк
281 282 283 284 285 286 287 288 289 290
Page 282 of 305